Location: Arnolds Mill
(42.3415°N, 73.5951°W)
Time: 11:06:15
(UTC+00:00)

BlueWalker 3 - Pass Details

Date: 28 June 2024
Orbit: 480 x 492 km, 53.2° (Epoch: 13 July)

Event Time Altitude Azimuth Distance (km) Brightness Sun altitude
Rises 01:54:26 0° 298° (WNW) 2,543 7.0 -12.0°
Reaches altitude 10° 01:57:20 10° 322° (NW) 1,661 6.1 -12.3°
Maximum altitude 01:59:37 15° 359° (N) 1,363 4.8 -12.6°
Drops below altitude 10° 02:01:54 10° 37° (NE) 1,659 4.7 -12.9°
Sets 02:04:48 0° 61° (ENE) 2,538 5.4 -13.2°
